Location: ??????????
(54.9233°N, 37.8237°E)
Time: 09:14:31
(UTC+00:00)

Daily predictions for brighter satellites

Satellite Brightness Start Highest point End
(mag) Time Altitude Azimuth Time Altitude Azimuth Time Altitude Azimuth
Radarsat Rocket 4.3 14:52:43 10° SE 14:58:17 46° ENE 15:04:20 10° NNW
Cosmos 2173 Rocket 4.1 14:53:53 10° N 15:00:16 87° E 15:06:30 10° S
Cosmos 1867 4.4 14:55:57 10° S 15:00:45 33° ESE 15:05:34 10° ENE
NOSS 3 (A) 3.6 15:00:25 10° SSW 15:01:55 37° SE 15:03:24 10° ENE
CZ-4C R/B 3.3 14:59:02 10° SSE 15:01:57 17° ESE 15:05:17 10° ENE
SJ-6B 4.3 15:00:11 10° E 15:01:57 14° ENE 15:03:43 10° NNE
USA 306 2.6 14:59:37 10° W 15:02:53 49° SSW 15:05:13 10° ESE
CZ-2D R/B 3.9 14:59:33 10° SE 15:03:08 35° ENE 15:06:48 10° N
Cosmos 1869 4.1 15:00:50 10° NNW 15:04:13 48° W 15:07:33 10° S
Cosmos 1315 Rocket 3.0 15:01:13 10° N 15:04:52 44° ENE 15:08:31 10° SE
Cosmos 2100 Rocket 4.2 15:00:09 10° NNW 15:06:28 84° W 15:12:41 10° S
NOSS 0 Rocket 4.0 15:00:27 10° NNW 15:06:41 62° NE 15:12:51 10° SE
CZ-2D R/B 2.7 15:04:58 10° SSE 15:08:02 88° WSW 15:11:07 10° NNW
Geosat FO 4.2 15:09:43 10° NNE 15:12:54 89° W 15:15:58 10° SW
Meteor 1-21 Rocket 4.4 15:08:20 10° S 15:14:06 59° E 15:19:56 10° NNE
USA 267 3.4 15:07:45 10° ENE 15:14:18 69° SSE 15:20:50 10° SW
Cosmos 2151 Rocket 3.8 15:10:22 10° N 15:14:46 51° ENE 15:19:09 10° SSE
Cosmos 2082 Rocket 3.7 15:10:28 10° W 15:15:29 32° NW 15:20:34 10° NNE
Cosmos 1864 Rocket 4.5 15:10:17 10° N 15:16:27 83° E 15:22:35 10° SSE
BREEZE-M (TANK) 3.5 15:16:01 10° WSW 15:18:02 28° S 15:21:32 10° ESE
Lacrosse 5 rocket 2.0 15:15:26 10° SSW 15:18:33 31° SE 15:21:28 12° E
CZ-4 R/B 3.3 15:18:37 10° NE 15:18:45 10° NE 15:18:53 10° NE
SAR-Lupe-1 4.0 15:16:51 10° SSE 15:20:25 74° ENE 15:24:01 10° NNW
DNEPR-1 R/B 4.4 15:16:45 10° NW 15:20:57 37° NNE 15:25:40 10° E
SJ-6F 4.4 15:17:02 10° SSE 15:20:59 85° WSW 15:24:56 10° NNW
CARTOSAT-1 3.9 15:19:47 10° SE 15:23:44 40° ENE 15:27:41 10° N
Cosmos 2297 Rocket 3.6 15:21:49 10° SE 15:25:26 18° E 15:28:54 10° ENE
Meteor 1-31 Rocket 4.3 15:25:00 13° ENE 15:25:47 13° NE 15:27:30 10° NNE
Cosmos 1356 Rocket 3.2 15:22:12 10° N 15:26:06 62° ENE 15:30:00 10° SSE
In-Cosmos 22 Rocket 4.2 15:21:02 10° S 15:26:33 85° E 15:32:15 10° NNE
Cosmos 841 Rocket 4.0 15:24:07 10° SW 15:29:14 60° WNW 15:34:21 10° NNE
Cosmos 1814 Rocket 4.3 15:25:37 10° S 15:30:39 47° ESE 15:35:40 10° NE
Cosmos 1125 Rocket 3.5 15:26:23 10° NNW 15:31:32 60° ENE 15:36:40 10° SE
Cosmos 1441 Rocket 3.5 15:31:14 10° SSW 15:34:32 59° WNW 15:37:51 10° N
USA 290 2.8 15:32:08 10° S 15:35:07 37° ESE 15:37:46 12° NE
Cosmos 1455 Rocket 3.8 15:31:42 10° N 15:35:32 30° ENE 15:39:21 10° SE
Cosmos 2084 Rocket 4.4 15:31:51 10° W 15:35:46 38° NNW 15:39:30 11° NE
SAR-Lupe-5 4.1 15:33:22 10° NNE 15:36:00 85° ESE 15:38:30 10° SSW
SAR-Lupe-4 3.8 15:33:00 10° S 15:36:34 73° WSW 15:40:10 10° NNW
Cosmos 2123 Rocket 4.0 15:32:24 10° S 15:38:43 84° E 15:45:04 10° NNE
Cosmos 2221 Rocket 4.1 15:39:38 10° SSE 15:43:43 36° E 15:47:51 10° NNE
Okean 2 Rocket 3.0 15:39:39 10° N 15:44:05 71° ENE 15:48:27 10° SSE
NOAA 6 4.0 15:39:35 10° SSE 15:44:41 67° ENE 15:49:50 10° NNW
YAOGAN 1 2.5 15:40:54 10° SSE 15:45:09 87° WSW 15:49:28 10° NNW
COSMOS 2428 3.0 15:39:26 10° NW 15:45:10 74° WSW 15:50:52 10° SSE
Cosmos 1900 4.4 15:40:37 10° SSW 15:45:41 74° SE 15:50:27 12° NE
Spot 4 Rocket 4.0 15:41:52 10° SSE 15:46:59 82° ENE 15:52:08 10° NNW
Okean 1 Rocket 3.0 15:43:20 10° N 15:47:46 68° ENE 15:52:07 10° SSE
Cosmos 1980 3.7 15:43:28 10° NNW 15:49:09 68° NE 15:54:47 10° SE
SL-19 R/B 4.4 15:43:40 10° SSE 15:49:49 74° ENE 15:55:44 10° NNW
Aureole 3 Rocket 3.0 15:45:34 10° N 15:50:13 53° ENE 15:53:43 10° SSE
YAOGAN 3 4.5 15:47:54 10° SSE 15:52:02 61° ENE 15:56:13 10° N
Sich 1 Rocket 3.5 15:48:56 10° N 15:53:30 73° ENE 15:58:03 10° SSE
ARIANE 5 R/B 4.1 15:49:07 10° SSW 15:53:53 38° W 15:58:37 10° NNW
Cosmos 2237 Rocket 2.2 15:49:05 10° NNW 15:54:46 69° NE 16:00:27 10° SE
Terra 3.4 15:54:39 16° NE 15:54:53 16° NE 15:57:39 10° NNE
ATLAS 5 CENTAUR R/B 3.8 15:55:22 10° WNW 15:58:59 27° SW 16:03:15 10° S
Cosmos 158 Rocket 3.7 15:54:14 10° SSW 15:59:02 69° ESE 16:03:54 10° NNE
SeaSat 1 4.5 15:56:59 10° S 16:01:17 30° WSW 16:05:36 10° NW
ATLAS CENTAUR R/B 2.8 16:02:13 10° NNW 16:03:43 13° N 16:04:23 12° NNE
SKYMED 2 3.6 15:59:47 10° NNE 16:04:10 83° WNW 16:08:30 10° SSW
Resurs 01 Rocket 1.5 16:00:34 10° SSE 16:04:56 74° ENE 16:09:22 10° NNW
Cosmos 1378 Rocket 3.7 16:00:38 10° SSW 16:04:57 74° WNW 16:09:16 10° N
NOSS 3-3 (A) 4.1 16:01:04 10° SSW 16:06:05 45° SE 16:10:09 19° ENE
CZ-4B R/B 4.5 16:04:54 24° ESE 16:06:34 34° ENE 16:10:08 10° N
ARIANE 6 FM1 Upper Stage 3.3 16:02:59 10° NW 16:06:43 37° NNE 16:08:13 26° ENE
GP-B 4.1 16:04:18 10° SSW 16:08:31 48° W 16:12:46 10° N
COSMO-SKYMED 1 2.3 16:05:16 10° NNE 16:09:24 71° ESE 16:13:30 10° S
Cosmos 2150 Rocket 4.2 16:04:36 10° NNW 16:09:39 49° NE 16:13:03 20° ESE
Cosmos 2298 Rocket 4.3 16:05:06 10° NNW 16:10:15 48° NE 16:13:41 20° ESE
Cosmos 2292 Rocket 4.2 16:07:35 10° SW 16:10:18 37° WNW 16:13:14 10° N
Cosmos 1447 Rocket 4.4 16:04:42 10° S 16:10:42 61° E 16:16:46 10° NNE
Cosmos 2228 3.4 16:07:24 10° N 16:11:18 37° ENE 16:12:56 26° ESE
Cosmos 2285 Rocket 4.1 16:06:49 10° NNW 16:13:18 85° WSW 16:19:43 10° SSE
Cosmos 1891 Rocket 4.5 16:09:14 10° N 16:15:37 74° ENE 16:22:04 10° SSE
PSLV R/B 3.8 16:11:55 10° S 16:16:01 67° WSW 16:20:07 10° NNW
SL-16 R/B 2.7 16:12:49 10° NNW 16:18:11 41° NE 16:20:34 28° E
NOSS 3-4 (A) 3.7 16:14:58 10° NW 16:21:26 88° NE 16:27:41 16° SE
NOSS 3-4 (C) 3.7 16:15:13 10° NW 16:21:42 88° NE 16:27:54 17° SE
Cosmos 1782 3.7 16:18:50 10° N 16:21:05 27° NE 16:21:05 27° NE
Cosmos 1025 Rocket 3.0 16:19:07 10° SSW 16:23:25 84° W 16:27:48 10° N
Cosmos 2227 Rocket 3.8 16:20:02 10° SSE 16:21:41 16° SE 16:21:41 16° SE
Cosmos 2034 Rocket 4.2 16:23:53 10° N 16:29:48 45° ENE 16:33:16 23° SE
Cosmos 1072 Rocket 4.4 16:25:28 10° N 16:31:46 67° ENE 16:37:54 10° SSE
SPOT 5 3.0 16:29:18 25° SE 16:31:56 53° ENE 16:36:53 10° N
Cosmos 1513 Rocket 4.4 16:25:58 10° N 16:32:14 84° ENE 16:38:36 10° SSE
SJ-6B 2.5 16:31:24 10° S 16:34:51 77° WSW 16:38:19 10° NNW
Cosmos 1674 Rocket 4.4 16:35:14 10° SSW 16:39:30 50° WNW 16:43:51 10° N
ATLAS 2AS CENTAUR R/B 3.4 16:32:54 10° W 16:39:31 45° NNW 16:43:50 21° NE
Cosmos 2344 4.5 16:36:14 10° SSE 16:41:07 24° SE 16:41:07 24° SE
Cosmos 1867 3.8 16:38:34 10° SW 16:44:01 71° NW 16:47:17 25° NE
Cosmos 724 4.4 16:38:11 10° SW 16:44:21 81° NW 16:48:23 23° NE
CZ-4B R/B 3.5 16:44:55 41° E 16:45:36 43° ENE 16:50:36 10° N
Okean O Rocket 3.5 16:47:38 17° NNE 16:47:38 17° NNE 16:49:07 10° N
CZ-4C R/B 1.8 16:44:31 10° SW 16:49:00 82° SE 16:51:11 37° NE
CZ-4B DEB 4.1 16:48:05 33° SE 16:50:28 62° ENE 16:55:52 10° NNW
ADEOS 3.7 16:51:16 46° E 16:51:46 48° ENE 16:56:46 10° N
CZ-4 R/B 1.9 16:53:10 40° N 16:53:10 40° N 16:55:45 10° N
Lacrosse 5 rocket 1.0 16:51:37 10° WSW 16:54:54 75° WNW 16:54:54 75° WNW
Feng Yun 1-1 Rocket 4.3 16:54:04 36° SE 16:56:27 64° ENE 17:02:17 10° NNW
USA 267 3.3 16:54:28 35° ENE 16:57:28 78° N 17:04:01 10° W
Meteor 1-31 Rocket 2.9 16:59:00 57° NNW 16:59:00 57° NNW 17:01:51 10° NNW
MetOp-B 4.3 16:58:49 49° ENE 16:59:08 50° ENE 17:04:19 10° N
RESURS DK-1 4.1 16:56:07 10° NNW 16:58:11 20° N 16:58:11 20° N
Cosmos 1464 Rocket 4.0 16:53:31 10° NNW 16:59:57 89° W 17:06:17 10° S
Cosmos 2082 Rocket 4.4 16:57:48 10° NW 17:01:24 17° N 17:04:45 11° NNE
CSL-04 Debris 4.1 17:03:06 25° SSE 17:06:24 90° WSW 17:11:53 10° NNW
Cosmos 1607 4.0 17:00:41 10° SW 17:06:50 75° NW 17:10:02 30° NE
Cosmos 1544 Rocket 4.1 17:03:23 10° N 17:06:33 45° NNE 17:06:33 45° NNE
ERS-1 Rocket 3.1 17:08:57 53° NE 17:08:57 53° NE 17:13:24 10° N
DNEPR-1 R/B 4.0 17:03:49 10° NW 17:08:30 71° SW 17:09:56 47° SSE
Cosmos 2297 Rocket 2.0 17:02:56 10° SSW 17:08:36 79° ESE 17:10:46 40° NE
CSL-04 Rocket 3.6 17:05:51 22° SSE 17:09:19 81° WSW 17:14:38 10° NNW
USA 290 4.5 17:06:51 10° WSW 17:09:28 23° NW 17:10:23 20° NNW
Cosmos 1943 3.8 17:04:24 10° NNW 17:09:48 40° NE 17:09:49 40° NE
Cosmos 1570 Rocket 3.8 17:05:45 10° SSW 17:11:01 78° ESE 17:12:21 51° NE
Cosmos 1455 Rocket 4.4 17:09:19 10° NNW 17:13:19 38° W 17:17:17 10° SSW
PAYLOAD B 4.1 17:23:18 54° SSE 17:24:42 89° WSW 17:30:21 10° NNW
TSX-5 4.4 17:21:02 10° NW 17:26:19 73° N 17:26:19 73° N
NOSS 3-3 (C) 3.8 17:22:08 10° SW 17:27:37 83° NW 17:29:14 52° NE
Cosmos 2208 Rocket 4.3 17:22:53 10° SSW 17:26:55 54° S 17:26:55 54° S
IRS-1A Rocket 4.4 17:29:23 60° NE 17:29:23 60° NE 17:34:36 10° NNW
Terra 2.6 17:33:16 41° N 17:33:16 41° N 17:36:23 10° NNW
Cosmos 2237 Rocket 4.0 17:33:38 10° NW 17:38:25 29° WSW 17:43:12 10° SSW
Resurs 01 Rocket 4.4 17:38:49 10° SW 17:41:49 18° W 17:44:51 10° NW
Cosmos 773 Rocket 4.3 17:40:37 10° SSW 17:44:58 59° SW 17:44:58 59° SW
ARIANE 6 FM1 Upper Stage 4.3 17:42:03 10° NW 17:44:13 31° WNW 17:44:13 31° WNW
NOSS 3-3 (A) 4.2 17:51:15 10° WSW 17:56:46 61° NNW 17:57:36 56° N
Cosmos 1833 Rocket 4.4 17:55:01 10° NNW 17:58:23 21° N 17:58:23 21° N
SL-16 R/B 2.7 17:56:59 10° NW 18:02:26 54° WSW 18:02:26 54° WSW
Cosmos 2227 Rocket 4.0 18:01:52 10° SSW 18:03:35 21° SSW 18:03:35 21° SSW
Okean O Rocket 4.1 18:24:52 17° NNW 18:24:52 17° NNW 18:25:55 10° NNW
USA 281 4.4 18:23:41 31° NNE 18:23:41 31° NNE 18:28:06 10° NNW
Cosmos 1634 Rocket 4.4 18:19:34 10° NNW 18:25:26 59° WNW 18:25:26 59° WNW
CZ-4B R/B 4.3 18:26:45 39° W 18:26:45 39° W 18:31:15 10° NNW
CZ-4 R/B 4.4 18:28:09 13° WNW 18:28:09 13° WNW 18:28:53 10° NW
ATLAS 2AS CENTAUR R/B 3.5 18:25:15 10° WNW 18:31:15 42° N 18:31:15 42° N
CZ-4C R/B 3.5 18:32:59 10° W 18:36:09 34° NW 18:36:09 34° NW
USA 267 3.6 18:41:48 59° WNW 18:41:48 59° WNW 18:47:00 10° WNW
Cosmos 2082 Rocket 4.4 18:43:54 10° NNW 18:46:35 17° N 18:46:35 17° N
Cosmos 2297 Rocket 3.8 18:48:11 10° W 18:52:38 31° NW 18:52:38 31° NW
ACS3 Solar Sail 4.4 22:31:44 10° NNE 22:32:03 11° NNE 22:32:03 11° NNE
